Willimantic, CT

8:58 AM EST on January 21, 2018 (GMT -0500)
Windham

Weather History for KIJD - November, 2012

Change the Weather History Date:

Friday, November 9, 2012

  Actual Average Record
Temperature  
Mean Temperature 44 °F -  
Max Temperature 53 °F 52 °F 70 °F (1975)
Min Temperature 34 °F 30 °F 12 °F (1952)
Degree Days  
Heating Degree Days 21    
Moisture  
Dew Point 22 °F    
Average Humidity 47    
Maximum Humidity 75    
Minimum Humidity 22    
Precipitation  
Precipitation 0.00 in - - ()
Sea Level Pressure  
Sea Level Pressure 29.99 in    
Wind  
Wind Speed 9 mph (NW)    
Max Wind Speed 15 mph    
Max Gust Speed 26 mph    
Visibility 10 miles    
Events      
Averages and records for this station are not official NWS values.
T = Trace of Precipitation, MM = Missing Value Source: NWS Daily Summary

Daily Weather History Graph

Daily Weather History Graph

Search for Another Location

Airport or City:

Trip Planner

Search our weather history database for the weather conditions in past years. The results will help you decide how hot, cold, wet, or windy it might be!

Date:

Astronomy

Nov. 09, 2012 Rise Set
Actual Time 6:31 AM EST 4:33 PM EST
Civil Twilight 6:01 AM EST 5:02 PM EST
Nautical Twilight 5:28 AM EST 5:36 PM EST
Astronomical Twilight 4:55 AM EST 6:08 PM EST
Moon 1:22 AM EST (11/9) 1:48 PM EST (11/9)
Length of Visible Light 11h 01m
Length of Day
10h 02m
Waning Crescent, 23% of the Moon is Illuminated
Nov 9
Waning Crescent
Nov 13
New
Nov 20
First Quarter
Nov 28
Full
Dec 6
Last Quarter

Hourly Weather History & Observations

Time (EST) Temp. Windchill Dew Point Humidity Pressure Visibility Wind Dir Wind Speed Gust Speed Precip Events Conditions
12:52 AM 39.9 °F 32.5 °F 28.0 °F 63% 29.81 in 10.0 mi NNW 12.7 mph 26.5 mph N/A   Mostly Cloudy
1:52 AM 39.0 °F 32.3 °F 28.0 °F 65% 29.83 in 10.0 mi NNW 10.4 mph - N/A   Partly Cloudy
2:52 AM 39.0 °F 31.8 °F 27.0 °F 62% 29.85 in 10.0 mi NNW 11.5 mph 20.7 mph N/A   Scattered Clouds
3:52 AM 37.9 °F 29.2 °F 27.0 °F 65% 29.86 in 10.0 mi NNW 15.0 mph 25.3 mph N/A   Clear
4:52 AM 37.0 °F 31.6 °F 26.1 °F 65% 29.88 in 10.0 mi NW 6.9 mph 18.4 mph N/A   Clear
5:52 AM 37.9 °F 32.1 °F 25.0 °F 60% 29.90 in 10.0 mi NNW 8.1 mph 25.3 mph N/A   Clear
6:52 AM 36.0 °F 29.6 °F 24.1 °F 62% 29.94 in 10.0 mi NW 8.1 mph - N/A   Clear
7:52 AM 39.0 °F 33.4 °F 23.0 °F 53% 29.96 in 10.0 mi NNW 8.1 mph - N/A   Clear
8:52 AM 42.1 °F 36.6 °F 21.9 °F 45% 29.96 in 10.0 mi NNW 9.2 mph - N/A   Clear
9:52 AM 44.1 °F 38.6 °F 19.9 °F 38% 29.97 in 10.0 mi NNW 10.4 mph 23.0 mph N/A   Clear
10:52 AM 46.9 °F - 21.0 °F 36% 29.99 in 10.0 mi North 13.8 mph - N/A   Clear
11:52 AM 50.0 °F - 19.0 °F 29% 29.99 in 10.0 mi NNW 12.7 mph 21.9 mph N/A   Clear
12:52 PM 52.0 °F - 17.1 °F 25% 29.97 in 10.0 mi NNW 10.4 mph 16.1 mph N/A   Clear
1:52 PM 53.1 °F - 15.1 °F 22% 29.99 in 10.0 mi NNW 9.2 mph - N/A   Clear
2:52 PM 53.1 °F - 17.1 °F 24% 29.99 in 10.0 mi NW 6.9 mph 18.4 mph N/A   Clear
3:52 PM 52.0 °F - 18.0 °F 26% 30.01 in 10.0 mi WNW 8.1 mph - N/A   Clear
4:52 PM 48.9 °F - 18.0 °F 29% 30.04 in 10.0 mi WNW 8.1 mph 17.3 mph N/A   Clear
5:52 PM 48.0 °F - 19.0 °F 32% 30.06 in 10.0 mi NNW 4.6 mph - N/A   Clear
6:52 PM 46.0 °F 43.1 °F 19.9 °F 35% 30.10 in 10.0 mi WNW 5.8 mph - N/A   Clear
7:52 PM 44.1 °F - 19.9 °F 38% 30.12 in 10.0 mi Calm Calm - N/A   Clear
8:52 PM 41.0 °F - 24.1 °F 51% 30.12 in 10.0 mi Calm Calm - N/A   Clear
9:52 PM 37.0 °F - 26.1 °F 65% 30.13 in 10.0 mi Calm Calm - N/A   Clear
10:52 PM 35.1 °F - 27.0 °F 72% 30.14 in 10.0 mi Calm Calm - N/A   Clear
11:52 PM 34.0 °F - 27.0 °F 75% 30.15 in 10.0 mi Calm Calm - N/A   Mostly Cloudy